Hourly Data Report for November 27, 2021

MIRAMICHI RCS
NEW BRUNSWICK
Current Station Operator: ECCC - MSC

47°00'34.000" N
65°27'54.000" W
33.00 m
8100989
71744
ACQ

Download Data

Hourly Data (November 2021)
Hourly Data Report for November 27, 2021
TIME
LST
Temp Definition
°C
Dew Point Definition
°C
Rel Hum Definition
%
Precip. Amount Definition
mm

Wind Dir Definition
10's deg

Wind Spd Definition
km/h
Visibility Definition
km
Stn Press Definition
kPa
Hmdx Definition


Wind Chill Definition


Weather Definition


00:00 4.6 4.2 97 0.0 20 15   98.45     LegendNANA
01:00 4.4 3.9 97 0.0 19 14   98.38     LegendNANA
02:00 4.1 3.5 96 0.2 19 12   98.42     LegendNANA
03:00 3.3 2.6 96 0.0 19 10   98.39     LegendNANA
04:00 2.8 2.2 96 0.0 19 7   98.36     LegendNANA
05:00 2.8 2.2 96 0.0 18 5   98.31     LegendNANA
06:00 2.7 2.2 97 0.0 31 4   98.19     LegendNANA
07:00 2.5 2.1 97 0.8 32 3   98.16     LegendNANA
08:00 2.4 2.1 98 1.6 4 2   98.12     LegendNANA
09:00 2.6 2.2 97 1.2 33 2   98.09     LegendNANA
10:00 2.6 1.9 95 0.9 32 5   98.04     LegendNANA
11:00 1.7 0.8 94 0.6 32 9   98.02     LegendNANA
12:00 1.6 1.1 96 0.0 29 12   97.99     LegendNANA
13:00 1.2 0.4 95 0.5 28 16   98.02     LegendNANA
14:00 0.1 -1.3 90 0.0 26 25   98.09     LegendNANA
15:00 -0.2 -0.9 95 0.0 26 18   98.19   -5 LegendNANA
16:00 -0.8 -1.9 92 0.0 24 24   98.32   -7 LegendNANA
17:00 -1.3 -2.9 89 0.2 24 27   98.44   -8 LegendNANA
18:00 -1.7 -3.2 89 0.0 24 25   98.55   -8 LegendNANA
19:00 -1.7 -4.4 82 0.0 25 25   98.66   -8 LegendNANA
20:00 -2.0 -4.3 84 0.0 24 29   98.73   -9 LegendNANA
21:00 -2.5 -4.7 85 0.0 23 25   98.80   -9 LegendNANA
22:00 -3.0 -5.8 81 0.0 23 30   98.87   -10 LegendNANA
23:00 -3.4 -6.1 82 0.0 22 35   98.92   -11 LegendNANA

Notes on Data Quality.

Legend

  • E = Estimated
  • M = Missing
  • NA = Not Available*
  • [empty] = Indicates an unobserved value
Date modified: